Weather History for KSKA - July, 2013

Change the Weather History Date:

Thursday, July 11, 2013

  Actual Average Record
Temperature  
Mean Temperature 67 °F -  
Max Temperature 80 °F 80 °F 98 °F (2002)
Min Temperature 54 °F 53 °F 41 °F (2008)
Cooling Degree Days 2    
Growing Degree Days 17 (Base 50)    
Moisture  
Dew Point 38 °F    
Average Humidity 34    
Maximum Humidity 66    
Minimum Humidity 16    
Precipitation  
Precipitation 0.00 in - - ()
Sea Level Pressure  
Sea Level Pressure 29.85 in    
Wind  
Wind Speed 12 mph (SSW)    
Max Wind Speed 20 mph    
Max Gust Speed 36 mph    
Visibility 10 miles    
Events      
Averages and records for this station are not official NWS values.
T = Trace of Precipitation, MM = Missing Value Source: NWS Daily Summary

Daily Weather History Graph

Daily Weather History Graph

Search for Another Location

Airport or City:

Trip Planner

Search our weather history database for the weather conditions in past years. The results will help you decide how hot, cold, wet, or windy it might be!

Date:

Astronomy

Jul. 11, 2013 Rise Set
Actual Time 5:04 AM PDT 8:47 PM PDT
Civil Twilight 4:25 AM PDT 9:26 PM PDT
Nautical Twilight 3:32 AM PDT 10:19 PM PDT
Astronomical Twilight 2:16 AM PDT 11:33 PM PDT
Moon 8:46 AM PDT (7/11) 10:09 PM PDT (7/11)
Length of Visible Light 17h 00m
Length of Day
15h 42m
Waxing Crescent, 11% of the Moon is Illuminated
Jul 11
Waxing Crescent
Jul 15
First Quarter
Jul 22
Full
Jul 29
Last Quarter
Aug 6
New

Hourly Weather History & Observations

Time (PDT) Temp. Dew Point Humidity Pressure Visibility Wind Dir Wind Speed Gust Speed Precip Events Conditions
12:58 AM 62.8 °F 37.0 °F 38% 29.77 in 10.0 mi SW 8.1 mph - N/A   Clear
1:58 AM 60.6 °F 40.1 °F 47% 29.77 in 10.0 mi SSW 8.1 mph - N/A   Clear
2:58 AM 57.6 °F 39.4 °F 51% 29.78 in 10.0 mi South 10.4 mph - N/A   Scattered Clouds
3:58 AM 58.5 °F 41.4 °F 53% 29.80 in 10.0 mi South 11.5 mph - N/A   Scattered Clouds
4:58 AM 56.7 °F 42.6 °F 59% 29.81 in 10.0 mi South 9.2 mph - N/A   Partly Cloudy
5:58 AM 54.3 °F 43.2 °F 66% 29.83 in 10.0 mi South 10.4 mph - N/A   Clear
6:58 AM 57.4 °F 44.2 °F 62% 29.86 in 10.0 mi South 16.1 mph - N/A   Clear
7:58 AM 61.3 °F 45.1 °F 55% 29.87 in 10.0 mi South 13.8 mph - N/A   Clear
8:58 AM 65.5 °F 45.7 °F 49% 29.86 in 10.0 mi South 13.8 mph - N/A   Clear
9:58 AM 68.2 °F 45.3 °F 44% 29.87 in 10.0 mi SSW 12.7 mph - N/A   Clear
10:23 AM 69.8 °F 44.6 °F 40% 29.90 in 10.0 mi SSW 15.0 mph 21.9 mph N/A   Clear
10:58 AM 73.0 °F 43.5 °F 35% 29.87 in 10.0 mi SW 13.8 mph - N/A   Clear
10:59 AM 73.4 °F 44.6 °F 36% 29.90 in 10.0 mi SW 17.3 mph - N/A   Clear
11:58 AM 75.2 °F 42.4 °F 31% 29.87 in 10.0 mi SSW 19.6 mph 26.5 mph N/A   Clear
12:58 PM 77.0 °F 42.1 °F 29% 29.86 in 10.0 mi SSW 16.1 mph 24.2 mph N/A   Clear
1:26 PM 77.0 °F 41.0 °F 28% 29.89 in 10.0 mi SSW 17.3 mph 21.9 mph N/A   Clear
1:48 PM 78.8 °F 39.2 °F 24% 29.89 in 10.0 mi South 15.0 mph - N/A   Clear
1:58 PM 78.4 °F 37.9 °F 23% 29.85 in 10.0 mi SW 17.3 mph 35.7 mph N/A   Clear
2:03 PM 78.8 °F 37.4 °F 23% 29.89 in 10.0 mi SSW 12.7 mph 20.7 mph N/A   Light Drizzle
2:05 PM 78.8 °F 39.2 °F 24% 29.88 in 10.0 mi SW 16.1 mph 20.7 mph N/A   Light Drizzle
2:12 PM 78.8 °F 39.2 °F 24% 29.88 in 10.0 mi SW 13.8 mph 25.3 mph N/A   Clear
2:51 PM 78.8 °F 33.8 °F 20% 29.88 in 10.0 mi SW 15.0 mph 24.2 mph N/A   Clear
2:58 PM 79.7 °F 35.4 °F 20% 29.84 in 10.0 mi SW 16.1 mph 23.0 mph 0.00 in   Clear
3:11 PM 78.8 °F 37.4 °F 23% 29.87 in 10.0 mi South 19.6 mph 28.8 mph N/A   Clear
3:58 PM 80.1 °F 32.4 °F 18% 29.84 in 10.0 mi SSW 18.4 mph 25.3 mph N/A   Clear
4:58 PM 79.2 °F 31.6 °F 18% 29.82 in 10.0 mi SSW 13.8 mph 20.7 mph N/A   Clear
5:02 PM 78.8 °F 30.2 °F 17% 29.85 in 10.0 mi SW 18.4 mph - N/A   Clear
5:58 PM 78.6 °F 28.4 °F 16% 29.82 in 10.0 mi SSW 16.1 mph 28.8 mph N/A   Clear
6:58 PM 77.0 °F 28.2 °F 17% 29.81 in 10.0 mi SSW 15.0 mph - N/A   Clear
7:58 PM 70.0 °F 33.3 °F 26% 29.82 in 10.0 mi WSW 10.4 mph - N/A   Clear
8:58 PM 61.5 °F 29.8 °F 30% 29.82 in 10.0 mi SW 8.1 mph - N/A   Clear
9:58 PM 59.2 °F 28.2 °F 31% 29.84 in 10.0 mi SW 10.4 mph - N/A   Clear
10:58 PM 56.1 °F 33.1 °F 42% 29.84 in 10.0 mi SW 9.2 mph - N/A   Clear
11:58 PM 54.3 °F 33.6 °F 46% 29.84 in 10.0 mi SW 6.9 mph - N/A   Partly Cloudy